START_TIME,STEP,MOV.,M34,t_acc.,L5,t_acc.,L18,t_acc.,L14,t_acc.
1989-08-27T00:00:25.310 ,1,0,0.,12.0,0.,12.0,0.,12.0,0.,12.0
1989-08-27T00:00:37.310 ,1,0,0.,12.0,0.,12.0,0.,12.0,0.,12.0
1989-08-27T00:00:49.310 ,2,1,0.,12.0,0.,12.0,0.,12.0,0.,12.0
1989-08-27T00:01:01.310 ,2,1,0.,12.0,0.,12.0,0.,12.0,0.,12.0
1989-08-27T00:01:13.310 ,2,0,0.,12.0,0.,12.0,0.,12.0,0.,12.0
1989-08-27T00:01:25.310 ,2,0,0.,12.0,0.,12.0,0.,12.0,0.,12.0
1989-08-27T00:01:37.310 ,3,1,0.,12.0,0.,12.0,0.,12.0,0.,12.0
1989-08-27T00:01:49.310 ,3,1,0.,12.0,0.,12.0,0.,12.0,0.,12.0
1989-08-27T00:02:01.310 ,3,0,0.,12.0,0.,12.0,0.,12.0,0.,12.0
1989-08-27T00:02:13.310 ,3,0,0.,12.0,0.,12.0,0.,12.0,0.,12.0
1989-08-27T00:02:25.310 ,4,1,0.,12.0,0.,12.0,0.,12.0,0.,12.0
1989-08-27T00:02:37.310 ,4,1,0.,12.0,0.,12.0,0.,12.0,0.,12.0
1989-08-27T00:02:49.310 ,4,0,0.,12.0,0.,12.0,0.,12.0,0.,12.0
1989-08-27T00:03:01.310 ,4,0,0.,12.0,0.,12.0,0.,12.0,0.,12.0
1989-08-27T00:03:13.310 ,5,1,0.,12.0,0.,12.0,0.,12.0,0.,12.0
1989-08-27T00:03:25.310 ,5,1,0.,12.0,0.,12.0,0.,12.0,0.,12.0
1989-08-27T00:03:37.310 ,5,0,0.,12.0,0.,12.0,0.,12.0,0.,12.0
1989-08-27T00:03:49.310 ,5,0,0.,12.0,0.,12.0,0.,12.0,0.,12.0
1989-08-27T00:04:01.310 ,6,1,0.,12.0,0.,12.0,0.,12.0,0.,12.0
1989-08-27T00:04:13.310 ,6,1,0.,12.0,0.,12.0,0.,12.0,0.,12.0
1989-08-27T00:04:25.310 ,6,0,0.,12.0,0.,12.0,0.,12.0,0.,12.0
1989-08-27T00:04:37.310 ,6,0,0.,12.0,0.,12.0,0.,12.0,0.,12.0
1989-08-27T00:04:49.310 ,7,1,0.,12.0,0.,12.0,0.,12.0,0.,12.0
1989-08-27T00:05:01.310 ,7,1,0.,12.0,0.,12.0,0.,12.0,0.,12.0
1989-08-27T00:05:13.310 ,7,0,0.,12.0,0.,12.0,0.,12.0,0.,12.0
1989-08-27T00:05:25.310 ,7,0,0.,12.0,0.,12.0,0.,12.0,0.,12.0
1989-08-27T00:05:37.310 ,7,1,0.,12.0,0.,12.0,0.,12.0,0.,12.0
1989-08-27T00:05:49.310 ,7,1,0.,12.0,0.,12.0,0.,12.0,0.,12.0
1989-08-27T00:06:01.310 ,7,0,0.,12.0,0.,12.0,0.,12.0,0.,12.0
1989-08-27T00:06:13.310 ,7,0,0.,12.0,0.,12.0,0.,12.0,0.,12.0
1989-08-27T00:06:25.310 ,6,1,0.,12.0,0.,12.0,0.,12.0,0.,12.0
1989-08-27T00:06:37.310 ,6,1,0.,12.0,0.,12.0,0.,12.0,0.,12.0
1989-08-27T00:06:49.310 ,6,0,0.,12.0,0.,12.0,0.,12.0,0.,12.0
1989-08-27T00:07:01.310 ,6,0,0.,12.0,0.,12.0,0.,12.0,0.,12.0
1989-08-27T00:07:13.310 ,5,1,0.,12.0,0.,12.0,0.,12.0,0.,12.0
1989-08-27T00:07:25.310 ,5,1,0.,12.0,0.,12.0,0.,12.0,0.,12.0
1989-08-27T00:07:37.310 ,5,0,0.,12.0,0.,12.0,0.,12.0,0.,12.0
1989-08-27T00:07:49.310 ,5,0,0.,12.0,0.,12.0,0.,12.0,0.,12.0
1989-08-27T00:08:01.310 ,4,1,0.,12.0,0.,12.0,0.,12.0,0.,12.0
1989-08-27T00:08:13.310 ,4,1,0.,12.0,0.,12.0,0.,12.0,0.,12.0
1989-08-27T00:08:25.310 ,4,0,0.,12.0,0.,12.0,0.,12.0,0.,12.0
1989-08-27T00:08:37.310 ,4,0,0.,12.0,0.,12.0,0.,12.0,0.,12.0
1989-08-27T00:08:49.310 ,3,1,0.,12.0,0.,12.0,0.,12.0,0.,12.0
1989-08-27T00:09:01.310 ,3,1,0.,12.0,0.,12.0,0.,12.0,0.,12.0
1989-08-27T00:09:13.310 ,3,0,0.,12.0,0.,12.0,0.,12.0,0.,12.0
1989-08-27T00:09:25.310 ,3,0,0.,12.0,0.,12.0,0.,12.0,0.,12.0
1989-08-27T00:09:37.310 ,2,1,0.,12.0,0.,12.0,0.,12.0,0.,12.0
1989-08-27T00:09:49.310 ,2,1,0.,12.0,0.,12.0,0.,12.0,0.,12.0
1989-08-27T00:10:01.310 ,2,0,0.,12.0,0.,12.0,0.,12.0,0.,12.0
1989-08-27T00:10:13.310 ,2,0,0.,12.0,0.,12.0,0.,12.0,0.,12.0
1989-08-27T00:10:25.310 ,1,1,0.,12.0,0.,12.0,0.,12.0,0.,12.0
1989-08-27T00:10:37.310 ,1,1,0.,12.0,0.,12.0,0.,12.0,0.,12.0
1989-08-27T00:10:49.310 ,1,0,0.,12.0,0.,12.0,0.,12.0,0.,12.0
1989-08-27T00:11:01.310 ,1,0,0.,12.0,0.,12.0,0.,12.0,0.,12.0
1989-08-27T00:11:13.310 ,0,1,0.,12.0,0.,12.0,0.,12.0,0.,12.0
1989-08-27T00:11:25.310 ,0,1,0.,12.0,0.,12.0,0.,12.0,0.,12.0
1989-08-27T00:11:37.310 ,0,0,0.,12.0,0.,12.0,0.,12.0,0.,12.0
1989-08-27T00:11:49.310 ,0,0,0.,12.0,0.,12.0,0.,12.0,0.,12.0
1989-08-27T00:12:01.300 ,0,1,0.,12.0,0.,12.0,0.,12.0,0.,12.0
1989-08-27T00:12:13.300 ,0,1,0.,12.0,0.,12.0,0.,12.0,0.,12.0
1989-08-27T00:12:25.300 ,0,0,0.,12.0,0.,12.0,0.,12.0,0.,12.0
1989-08-27T00:12:37.300 ,0,0,0.,12.0,0.,12.0,0.,12.0,0.,12.0
1989-08-27T00:12:49.300 ,1,1,0.,12.0,0.,12.0,0.,12.0,0.,12.0
1989-08-27T00:13:01.300 ,1,1,0.,12.0,0.,12.0,0.,12.0,0.,12.0
1989-08-27T00:13:13.300 ,1,0,0.,12.0,0.,12.0,0.,12.0,0.,12.0
1989-08-27T00:13:25.300 ,1,0,0.,12.0,0.,12.0,0.,12.0,0.,12.0
1989-08-27T00:13:37.300 ,2,1,0.,12.0,0.,12.0,0.,12.0,0.,12.0
1989-08-27T00:13:49.300 ,2,1,0.,12.0,0.,12.0,0.,12.0,0.,12.0
1989-08-27T00:14:01.300 ,2,0,0.,12.0,0.,12.0,0.,12.0,0.,12.0
1989-08-27T00:14:13.300 ,2,0,0.,12.0,0.,12.0,0.,12.0,0.,12.0
1989-08-27T00:14:25.300 ,3,1,0.,12.0,0.,12.0,0.,12.0,0.,12.0
1989-08-27T00:14:37.300 ,3,1,0.,12.0,0.,12.0,0.,12.0,0.,12.0
1989-08-27T00:14:49.300 ,3,0,0.,12.0,0.,12.0,0.,12.0,0.,12.0
1989-08-27T00:15:01.300 ,3,0,0.,12.0,0.,12.0,0.,12.0,0.,12.0
1989-08-27T00:15:13.300 ,4,1,0.,12.0,0.,12.0,0.,12.0,0.,12.0
1989-08-27T00:15:25.300 ,4,1,0.,12.0,1.,12.0,0.,12.0,0.,12.0
1989-08-27T00:15:37.300 ,4,0,0.,12.0,0.,12.0,0.,12.0,0.,12.0
1989-08-27T00:15:49.300 ,4,0,0.,12.0,0.,12.0,0.,12.0,0.,12.0
1989-08-27T00:16:01.300 ,5,1,0.,12.0,0.,12.0,0.,12.0,0.,12.0
1989-08-27T00:16:13.300 ,5,1,0.,12.0,0.,12.0,0.,12.0,0.,12.0
1989-08-27T00:16:25.300 ,5,0,0.,12.0,0.,12.0,0.,12.0,0.,12.0
1989-08-27T00:16:37.300 ,5,0,0.,12.0,0.,12.0,0.,12.0,0.,12.0
1989-08-27T00:16:49.300 ,6,1,0.,12.0,0.,12.0,0.,12.0,0.,12.0
1989-08-27T00:17:01.300 ,6,1,0.,12.0,0.,12.0,0.,12.0,0.,12.0
1989-08-27T00:17:13.300 ,6,0,0.,12.0,0.,12.0,0.,12.0,0.,12.0
1989-08-27T00:17:25.300 ,6,0,0.,12.0,0.,12.0,0.,12.0,0.,12.0
1989-08-27T00:17:37.300 ,7,1,0.,12.0,0.,12.0,0.,12.0,0.,12.0
1989-08-27T00:17:49.300 ,7,1,0.,12.0,0.,12.0,0.,12.0,0.,12.0
1989-08-27T00:18:01.300 ,7,0,0.,12.0,0.,12.0,0.,12.0,0.,12.0
1989-08-27T00:18:13.300 ,7,0,0.,12.0,0.,12.0,0.,12.0,0.,12.0
1989-08-27T00:18:25.300 ,7,1,0.,12.0,0.,12.0,0.,12.0,0.,12.0
1989-08-27T00:18:37.300 ,7,1,0.,12.0,0.,12.0,0.,12.0,0.,12.0
1989-08-27T00:18:49.300 ,7,0,0.,12.0,0.,12.0,0.,12.0,0.,12.0
1989-08-27T00:19:01.300 ,7,0,0.,12.0,0.,12.0,0.,12.0,0.,12.0
1989-08-27T00:19:13.300 ,6,1,0.,12.0,0.,12.0,0.,12.0,0.,12.0
1989-08-27T00:19:25.300 ,6,1,0.,12.0,0.,12.0,0.,12.0,0.,12.0
1989-08-27T00:19:37.300 ,6,0,0.,12.0,0.,12.0,0.,12.0,0.,12.0
1989-08-27T00:19:49.300 ,6,0,0.,12.0,0.,12.0,0.,12.0,0.,12.0
1989-08-27T00:20:01.300 ,5,1,0.,12.0,0.,12.0,0.,12.0,0.,12.0
1989-08-27T00:20:13.300 ,5,1,0.,12.0,0.,12.0,0.,12.0,0.,12.0
1989-08-27T00:20:25.300 ,5,0,0.,12.0,0.,12.0,0.,12.0,0.,12.0
1989-08-27T00:20:37.300 ,5,0,0.,12.0,0.,12.0,0.,12.0,0.,12.0
1989-08-27T00:20:49.300 ,4,1,0.,12.0,0.,12.0,0.,12.0,0.,12.0
1989-08-27T00:21:01.300 ,4,1,0.,12.0,0.,12.0,0.,12.0,0.,12.0
1989-08-27T00:21:13.300 ,4,0,0.,12.0,0.,12.0,0.,12.0,0.,12.0
1989-08-27T00:21:25.300 ,4,0,0.,12.0,0.,12.0,0.,12.0,0.,12.0
1989-08-27T00:21:37.300 ,3,1,0.,12.0,0.,12.0,0.,12.0,0.,12.0
1989-08-27T00:21:49.300 ,3,1,0.,12.0,0.,12.0,0.,12.0,0.,12.0
1989-08-27T00:22:01.300 ,3,0,0.,12.0,0.,12.0,0.,12.0,0.,12.0
1989-08-27T00:22:13.300 ,3,0,0.,12.0,0.,12.0,0.,12.0,0.,12.0
1989-08-27T00:22:25.300 ,2,1,0.,12.0,0.,12.0,0.,12.0,0.,12.0
1989-08-27T00:22:37.300 ,2,1,0.,12.0,0.,12.0,0.,12.0,0.,12.0
1989-08-27T00:22:49.300 ,2,0,0.,12.0,0.,12.0,0.,12.0,0.,12.0
1989-08-27T00:23:01.300 ,2,0,0.,12.0,0.,12.0,0.,12.0,0.,12.0
1989-08-27T00:23:13.300 ,1,1,0.,12.0,0.,12.0,0.,12.0,0.,12.0
1989-08-27T00:23:25.300 ,1,1,0.,12.0,0.,12.0,0.,12.0,0.,12.0
1989-08-27T00:23:37.300 ,1,0,0.,12.0,0.,12.0,0.,12.0,0.,12.0
1989-08-27T00:23:49.300 ,1,0,0.,12.0,0.,12.0,0.,12.0,0.,12.0
1989-08-27T00:24:01.300 ,0,1,0.,12.0,0.,12.0,0.,12.0,0.,12.0
1989-08-27T00:24:13.300 ,0,1,0.,12.0,0.,12.0,0.,12.0,0.,12.0
1989-08-27T00:24:25.300 ,0,0,0.,12.0,0.,12.0,0.,12.0,0.,12.0
1989-08-27T00:24:37.300 ,0,0,0.,12.0,0.,12.0,0.,12.0,0.,12.0
1989-08-27T00:24:49.300 ,0,1,0.,12.0,0.,12.0,0.,12.0,0.,12.0
1989-08-27T00:25:01.300 ,0,1,0.,12.0,0.,12.0,0.,12.0,0.,12.0
1989-08-27T00:25:13.300 ,0,0,0.,12.0,0.,12.0,0.,12.0,0.,12.0
1989-08-27T00:25:25.300 ,0,0,0.,12.0,0.,12.0,0.,12.0,0.,12.0
1989-08-27T00:25:37.300 ,1,1,0.,12.0,0.,12.0,0.,12.0,0.,12.0
1989-08-27T00:25:49.300 ,1,1,0.,12.0,0.,12.0,0.,12.0,0.,12.0
1989-08-27T00:26:01.300 ,1,0,0.,12.0,0.,12.0,0.,12.0,0.,12.0
1989-08-27T00:26:13.300 ,1,0,0.,12.0,0.,12.0,0.,12.0,0.,12.0
1989-08-27T00:26:25.300 ,2,1,0.,12.0,0.,12.0,0.,12.0,0.,12.0
1989-08-27T00:26:37.300 ,2,1,0.,12.0,0.,12.0,0.,12.0,0.,12.0
1989-08-27T00:26:49.300 ,2,0,0.,12.0,0.,12.0,0.,12.0,0.,12.0
1989-08-27T00:27:01.300 ,2,0,0.,12.0,0.,12.0,0.,12.0,0.,12.0
1989-08-27T00:27:13.300 ,3,1,0.,12.0,0.,12.0,0.,12.0,0.,12.0
1989-08-27T00:27:25.300 ,3,1,0.,12.0,0.,12.0,0.,12.0,0.,12.0
1989-08-27T00:27:37.300 ,3,0,0.,12.0,0.,12.0,0.,12.0,0.,12.0
1989-08-27T00:27:49.300 ,3,0,0.,12.0,0.,12.0,0.,12.0,0.,12.0
1989-08-27T00:28:01.300 ,4,1,0.,12.0,0.,12.0,0.,12.0,0.,12.0
1989-08-27T00:28:13.300 ,4,1,0.,12.0,0.,12.0,0.,12.0,0.,12.0
1989-08-27T00:28:25.300 ,4,0,0.,12.0,0.,12.0,0.,12.0,0.,12.0
1989-08-27T00:28:37.300 ,4,0,0.,12.0,0.,12.0,0.,12.0,0.,12.0
1989-08-27T00:28:49.300 ,5,1,0.,12.0,0.,12.0,0.,12.0,0.,12.0
1989-08-27T00:29:01.300 ,5,1,0.,12.0,0.,12.0,0.,12.0,0.,12.0
1989-08-27T00:29:13.300 ,5,0,0.,12.0,0.,12.0,0.,12.0,0.,12.0
1989-08-27T00:29:25.300 ,5,0,0.,12.0,0.,12.0,0.,12.0,0.,12.0
1989-08-27T00:29:37.300 ,6,1,0.,12.0,0.,12.0,0.,12.0,0.,12.0
1989-08-27T00:29:49.300 ,6,1,0.,12.0,0.,12.0,0.,12.0,0.,12.0
1989-08-27T00:30:01.300 ,6,0,0.,12.0,0.,12.0,0.,12.0,0.,12.0
1989-08-27T00:30:13.300 ,6,0,0.,12.0,0.,12.0,0.,12.0,0.,12.0
1989-08-27T00:30:25.300 ,7,1,0.,12.0,0.,12.0,0.,12.0,0.,12.0
1989-08-27T00:30:37.300 ,7,1,0.,12.0,0.,12.0,0.,12.0,0.,12.0
1989-08-27T00:30:49.300 ,7,0,0.,12.0,0.,12.0,0.,12.0,0.,12.0
1989-08-27T00:31:01.300 ,7,0,0.,12.0,0.,12.0,0.,12.0,0.,12.0
1989-08-27T00:31:13.300 ,7,1,0.,12.0,0.,12.0,0.,12.0,0.,12.0
1989-08-27T00:31:25.300 ,7,1,0.,12.0,0.,12.0,0.,12.0,0.,12.0
1989-08-27T00:31:37.300 ,7,0,0.,12.0,1.,12.0,0.,12.0,0.,12.0
1989-08-27T00:31:49.300 ,7,0,0.,12.0,0.,12.0,0.,12.0,0.,12.0
1989-08-27T00:32:01.300 ,6,1,0.,12.0,0.,12.0,0.,12.0,0.,12.0
1989-08-27T00:32:13.300 ,6,1,0.,12.0,0.,12.0,0.,12.0,0.,12.0
1989-08-27T00:32:25.300 ,6,0,0.,12.0,0.,12.0,0.,12.0,0.,12.0
1989-08-27T00:32:37.300 ,6,0,0.,12.0,0.,12.0,0.,12.0,0.,12.0
1989-08-27T00:32:49.300 ,5,1,0.,12.0,0.,12.0,0.,12.0,0.,12.0
1989-08-27T00:33:01.300 ,5,1,0.,12.0,0.,12.0,0.,12.0,0.,12.0
1989-08-27T00:33:13.300 ,5,0,0.,12.0,0.,12.0,0.,12.0,0.,12.0
1989-08-27T00:33:25.300 ,5,0,0.,12.0,0.,12.0,0.,12.0,0.,12.0
1989-08-27T00:33:37.300 ,4,1,0.,12.0,0.,12.0,0.,12.0,0.,12.0
1989-08-27T00:33:49.300 ,4,1,0.,12.0,0.,12.0,0.,12.0,0.,12.0
1989-08-27T00:34:01.300 ,4,0,0.,12.0,0.,12.0,0.,12.0,0.,12.0
1989-08-27T00:34:13.300 ,4,0,0.,12.0,0.,12.0,0.,12.0,0.,12.0
1989-08-27T00:34:25.300 ,3,1,0.,12.0,0.,12.0,0.,12.0,0.,12.0
1989-08-27T00:34:37.300 ,3,1,0.,12.0,0.,12.0,0.,12.0,0.,12.0
1989-08-27T00:34:49.300 ,3,0,0.,12.0,0.,12.0,0.,12.0,0.,12.0
1989-08-27T00:35:01.300 ,3,0,0.,12.0,0.,12.0,0.,12.0,0.,12.0
1989-08-27T00:35:13.300 ,2,1,0.,12.0,0.,12.0,0.,12.0,0.,12.0
1989-08-27T00:35:25.300 ,2,1,0.,12.0,0.,12.0,0.,12.0,0.,12.0
1989-08-27T00:35:37.300 ,2,0,0.,12.0,0.,12.0,0.,12.0,0.,12.0
1989-08-27T00:35:49.300 ,2,0,0.,12.0,0.,12.0,0.,12.0,0.,12.0
1989-08-27T00:36:01.300 ,1,1,0.,12.0,0.,12.0,0.,12.0,0.,12.0
1989-08-27T00:36:13.300 ,1,1,0.,12.0,0.,12.0,0.,12.0,0.,12.0
1989-08-27T00:36:25.300 ,1,0,0.,12.0,0.,12.0,0.,12.0,0.,12.0
1989-08-27T00:36:37.300 ,1,0,0.,12.0,0.,12.0,0.,12.0,0.,12.0
1989-08-27T00:36:49.300 ,0,1,0.,12.0,0.,12.0,0.,12.0,0.,12.0
1989-08-27T00:37:01.300 ,0,1,0.,12.0,0.,12.0,0.,12.0,0.,12.0
1989-08-27T00:37:13.300 ,0,0,0.,12.0,0.,12.0,0.,12.0,0.,12.0
1989-08-27T00:37:25.300 ,0,0,0.,12.0,0.,12.0,0.,12.0,0.,12.0
1989-08-27T00:37:37.300 ,0,1,0.,12.0,0.,12.0,0.,12.0,0.,12.0
1989-08-27T00:37:49.300 ,0,1,0.,12.0,0.,12.0,0.,12.0,0.,12.0
1989-08-27T00:38:01.300 ,0,0,0.,12.0,0.,12.0,0.,12.0,0.,12.0
1989-08-27T00:38:13.300 ,0,0,0.,12.0,0.,12.0,0.,12.0,0.,12.0
1989-08-27T00:38:25.300 ,1,1,0.,12.0,0.,12.0,0.,12.0,0.,12.0
1989-08-27T00:38:37.300 ,1,1,0.,12.0,0.,12.0,0.,12.0,0.,12.0
1989-08-27T00:38:49.300 ,1,0,0.,12.0,0.,12.0,0.,12.0,0.,12.0
1989-08-27T00:39:01.300 ,1,0,0.,12.0,0.,12.0,0.,12.0,0.,12.0
1989-08-27T00:39:13.300 ,2,1,0.,12.0,0.,12.0,0.,12.0,0.,12.0
1989-08-27T00:39:25.300 ,2,1,0.,12.0,0.,12.0,0.,12.0,0.,12.0
1989-08-27T00:39:37.300 ,2,0,0.,12.0,0.,12.0,0.,12.0,0.,12.0
1989-08-27T00:39:49.300 ,2,0,0.,12.0,0.,12.0,0.,12.0,0.,12.0
1989-08-27T00:40:01.300 ,3,1,0.,12.0,0.,12.0,0.,12.0,0.,12.0
1989-08-27T00:40:13.300 ,3,1,0.,12.0,0.,12.0,0.,12.0,0.,12.0
1989-08-27T00:40:25.300 ,3,0,0.,12.0,0.,12.0,0.,12.0,0.,12.0
1989-08-27T00:40:37.300 ,3,0,0.,12.0,0.,12.0,0.,12.0,0.,12.0
1989-08-27T00:40:49.300 ,4,1,0.,12.0,0.,12.0,0.,12.0,0.,12.0
1989-08-27T00:41:01.300 ,4,1,0.,12.0,0.,12.0,0.,12.0,0.,12.0
1989-08-27T00:41:13.300 ,4,0,0.,12.0,0.,12.0,0.,12.0,0.,12.0
1989-08-27T00:41:25.300 ,4,0,0.,12.0,0.,12.0,0.,12.0,0.,12.0
1989-08-27T00:41:37.300 ,5,1,0.,12.0,0.,12.0,0.,12.0,0.,12.0
1989-08-27T00:41:49.300 ,5,1,0.,12.0,0.,12.0,0.,12.0,0.,12.0
1989-08-27T00:42:01.300 ,5,0,0.,12.0,0.,12.0,0.,12.0,0.,12.0
1989-08-27T00:42:13.300 ,5,0,0.,12.0,0.,12.0,0.,12.0,0.,12.0
1989-08-27T00:42:25.300 ,6,1,0.,12.0,0.,12.0,0.,12.0,0.,12.0
1989-08-27T00:42:37.300 ,6,1,0.,12.0,0.,12.0,0.,12.0,0.,12.0
1989-08-27T00:42:49.300 ,6,0,0.,12.0,0.,12.0,0.,12.0,0.,12.0
1989-08-27T00:43:01.300 ,6,0,0.,12.0,0.,12.0,0.,12.0,0.,12.0
1989-08-27T00:43:13.300 ,7,1,0.,12.0,0.,12.0,0.,12.0,0.,12.0
1989-08-27T00:43:25.300 ,7,1,0.,12.0,0.,12.0,0.,12.0,0.,12.0
1989-08-27T00:43:37.300 ,7,0,0.,12.0,0.,12.0,0.,12.0,0.,12.0
1989-08-27T00:43:49.300 ,7,0,0.,12.0,0.,12.0,0.,12.0,0.,12.0
1989-08-27T00:44:01.300 ,7,1,0.,12.0,0.,12.0,0.,12.0,0.,12.0
1989-08-27T00:44:13.300 ,7,1,0.,12.0,0.,12.0,0.,12.0,0.,12.0
1989-08-27T00:44:25.300 ,7,0,0.,12.0,0.,12.0,0.,12.0,0.,12.0
1989-08-27T00:44:37.300 ,7,0,0.,12.0,0.,12.0,0.,12.0,0.,12.0
1989-08-27T00:44:49.300 ,6,1,0.,12.0,0.,12.0,0.,12.0,0.,12.0
1989-08-27T00:45:01.300 ,6,1,0.,12.0,0.,12.0,0.,12.0,0.,12.0
1989-08-27T00:45:13.300 ,6,0,0.,12.0,0.,12.0,0.,12.0,0.,12.0
1989-08-27T00:45:25.300 ,6,0,0.,12.0,0.,12.0,0.,12.0,0.,12.0
1989-08-27T00:45:37.300 ,5,1,0.,12.0,0.,12.0,0.,12.0,0.,12.0
1989-08-27T00:45:49.300 ,5,1,0.,12.0,0.,12.0,0.,12.0,0.,12.0
1989-08-27T00:46:01.300 ,5,0,0.,12.0,0.,12.0,0.,12.0,0.,12.0
1989-08-27T00:46:13.300 ,5,0,0.,12.0,0.,12.0,0.,12.0,0.,12.0
1989-08-27T00:46:25.300 ,4,1,0.,12.0,0.,12.0,0.,12.0,0.,12.0
1989-08-27T00:46:37.300 ,4,1,0.,12.0,0.,12.0,0.,12.0,0.,12.0
1989-08-27T00:46:49.300 ,4,0,0.,12.0,0.,12.0,0.,12.0,0.,12.0
1989-08-27T00:47:01.300 ,4,0,0.,12.0,0.,12.0,0.,12.0,0.,12.0
1989-08-27T00:47:13.300 ,3,1,0.,12.0,0.,12.0,0.,12.0,0.,12.0
1989-08-27T00:47:25.300 ,3,1,0.,12.0,0.,12.0,0.,12.0,0.,12.0
1989-08-27T00:47:37.300 ,3,0,0.,12.0,0.,12.0,0.,12.0,0.,12.0
1989-08-27T00:47:49.300 ,3,0,0.,12.0,0.,12.0,0.,12.0,0.,12.0
1989-08-27T00:48:01.300 ,2,1,0.,12.0,0.,12.0,0.,12.0,0.,12.0
1989-08-27T00:48:13.300 ,2,1,0.,12.0,0.,12.0,0.,12.0,0.,12.0
1989-08-27T00:48:25.300 ,2,0,0.,12.0,0.,12.0,0.,12.0,0.,12.0
1989-08-27T00:48:37.300 ,2,0,0.,12.0,0.,12.0,0.,12.0,0.,12.0
1989-08-27T00:48:49.300 ,1,1,0.,12.0,0.,12.0,0.,12.0,0.,12.0
1989-08-27T00:49:01.300 ,1,1,0.,12.0,0.,12.0,0.,12.0,0.,12.0
1989-08-27T00:49:13.300 ,1,0,0.,12.0,0.,12.0,0.,12.0,0.,12.0
1989-08-27T00:49:25.300 ,1,0,0.,12.0,0.,12.0,0.,12.0,0.,12.0
1989-08-27T00:49:37.300 ,0,1,0.,12.0,0.,12.0,0.,12.0,0.,12.0
1989-08-27T00:49:49.300 ,0,1,0.,12.0,0.,12.0,0.,12.0,0.,12.0
1989-08-27T00:50:01.300 ,0,0,0.,12.0,0.,12.0,0.,12.0,0.,12.0
1989-08-27T00:50:13.300 ,0,0,0.,12.0,0.,12.0,0.,12.0,0.,12.0
1989-08-27T00:50:25.300 ,0,1,0.,12.0,0.,12.0,0.,12.0,0.,12.0
1989-08-27T00:50:37.300 ,0,1,0.,12.0,0.,12.0,0.,12.0,0.,12.0
1989-08-27T00:50:49.300 ,0,0,0.,12.0,0.,12.0,0.,12.0,0.,12.0
1989-08-27T00:51:01.300 ,0,0,0.,12.0,0.,12.0,0.,12.0,0.,12.0
1989-08-27T00:51:13.300 ,1,1,0.,12.0,0.,12.0,0.,12.0,0.,12.0
1989-08-27T00:51:25.300 ,1,1,0.,12.0,0.,12.0,0.,12.0,0.,12.0
1989-08-27T00:51:37.300 ,1,0,0.,12.0,0.,12.0,0.,12.0,0.,12.0
1989-08-27T00:51:49.300 ,1,0,0.,12.0,0.,12.0,0.,12.0,0.,12.0
1989-08-27T00:52:01.300 ,2,1,0.,12.0,0.,12.0,0.,12.0,0.,12.0
1989-08-27T00:52:13.300 ,2,1,0.,12.0,0.,12.0,0.,12.0,0.,12.0
1989-08-27T00:52:25.300 ,2,0,0.,12.0,0.,12.0,0.,12.0,0.,12.0
1989-08-27T00:52:37.300 ,2,0,0.,12.0,0.,12.0,0.,12.0,0.,12.0
1989-08-27T00:52:49.300 ,3,1,0.,12.0,0.,12.0,0.,12.0,0.,12.0
1989-08-27T00:53:01.300 ,3,1,0.,12.0,0.,12.0,0.,12.0,0.,12.0
1989-08-27T00:53:13.300 ,3,0,0.,12.0,0.,12.0,0.,12.0,0.,12.0
1989-08-27T00:53:25.300 ,3,0,0.,12.0,0.,12.0,0.,12.0,0.,12.0
1989-08-27T00:53:37.300 ,4,1,0.,12.0,0.,12.0,0.,12.0,0.,12.0
1989-08-27T00:53:49.300 ,4,1,0.,12.0,0.,12.0,0.,12.0,0.,12.0
1989-08-27T00:54:01.300 ,4,0,0.,12.0,0.,12.0,0.,12.0,0.,12.0
1989-08-27T00:54:13.300 ,4,0,0.,12.0,0.,12.0,0.,12.0,0.,12.0
1989-08-27T00:54:25.300 ,5,1,0.,12.0,0.,12.0,0.,12.0,0.,12.0
1989-08-27T00:54:37.300 ,5,1,0.,12.0,0.,12.0,0.,12.0,0.,12.0
1989-08-27T00:54:49.300 ,5,0,0.,12.0,0.,12.0,0.,12.0,0.,12.0
1989-08-27T00:55:01.300 ,5,0,0.,12.0,0.,12.0,0.,12.0,0.,12.0
1989-08-27T00:55:13.300 ,6,1,0.,12.0,0.,12.0,0.,12.0,0.,12.0
1989-08-27T00:55:25.300 ,6,1,0.,12.0,0.,12.0,0.,12.0,0.,12.0
1989-08-27T00:55:37.300 ,6,0,0.,12.0,0.,12.0,0.,12.0,0.,12.0
1989-08-27T00:55:49.300 ,6,0,0.,12.0,0.,12.0,0.,12.0,0.,12.0
1989-08-27T00:56:01.300 ,7,1,0.,12.0,0.,12.0,0.,12.0,0.,12.0
1989-08-27T00:56:13.300 ,7,1,0.,12.0,0.,12.0,0.,12.0,0.,12.0
1989-08-27T00:56:25.300 ,7,0,0.,12.0,0.,12.0,0.,12.0,0.,12.0
1989-08-27T00:56:37.300 ,7,0,0.,12.0,0.,12.0,0.,12.0,0.,12.0
1989-08-27T00:56:49.300 ,7,1,0.,12.0,0.,12.0,0.,12.0,0.,12.0
1989-08-27T00:57:01.300 ,7,1,0.,12.0,0.,12.0,0.,12.0,0.,12.0
1989-08-27T00:57:13.300 ,7,0,0.,12.0,0.,12.0,0.,12.0,0.,12.0
1989-08-27T00:57:25.300 ,7,0,0.,12.0,0.,12.0,0.,12.0,0.,12.0
1989-08-27T00:57:37.300 ,6,1,0.,12.0,0.,12.0,0.,12.0,0.,12.0
1989-08-27T00:57:49.300 ,6,1,0.,12.0,0.,12.0,0.,12.0,0.,12.0
1989-08-27T00:58:01.300 ,6,0,0.,12.0,0.,12.0,0.,12.0,0.,12.0
1989-08-27T00:58:13.300 ,6,0,0.,12.0,0.,12.0,0.,12.0,0.,12.0
1989-08-27T00:58:25.300 ,5,1,0.,12.0,0.,12.0,0.,12.0,0.,12.0
1989-08-27T00:58:37.300 ,5,1,0.,12.0,0.,12.0,0.,12.0,0.,12.0
1989-08-27T00:58:49.300 ,5,0,0.,12.0,0.,12.0,0.,12.0,0.,12.0
1989-08-27T00:59:01.300 ,5,0,0.,12.0,0.,12.0,0.,12.0,0.,12.0
1989-08-27T00:59:13.300 ,4,1,0.,12.0,0.,12.0,0.,12.0,0.,12.0
1989-08-27T00:59:25.300 ,4,1,0.,12.0,0.,12.0,0.,12.0,0.,12.0
1989-08-27T00:59:37.300 ,4,0,0.,12.0,0.,12.0,0.,12.0,0.,12.0
1989-08-27T00:59:49.300 ,4,0,0.,12.0,0.,12.0,0.,12.0,0.,12.0
1989-08-27T01:00:01.300 ,3,1,0.,12.0,0.,12.0,0.,12.0,0.,12.0
1989-08-27T01:00:13.300 ,3,1,0.,12.0,0.,12.0,0.,12.0,0.,12.0
1989-08-27T01:00:25.300 ,3,0,0.,12.0,0.,12.0,0.,12.0,0.,12.0
1989-08-27T01:00:37.300 ,3,0,0.,12.0,0.,12.0,0.,12.0,0.,12.0
1989-08-27T01:00:49.300 ,2,1,0.,12.0,0.,12.0,0.,12.0,0.,12.0
1989-08-27T01:01:01.300 ,2,1,0.,12.0,0.,12.0,0.,12.0,0.,12.0
1989-08-27T01:01:13.300 ,2,0,0.,12.0,0.,12.0,0.,12.0,0.,12.0
1989-08-27T01:01:25.300 ,2,0,0.,12.0,0.,12.0,0.,12.0,0.,12.0
1989-08-27T01:01:37.300 ,1,1,0.,12.0,0.,12.0,0.,12.0,0.,12.0
1989-08-27T01:01:49.300 ,1,1,0.,12.0,0.,12.0,0.,12.0,0.,12.0
1989-08-27T01:02:01.300 ,1,0,0.,12.0,0.,12.0,0.,12.0,0.,12.0
1989-08-27T01:02:13.300 ,1,0,0.,12.0,0.,12.0,0.,12.0,0.,12.0
1989-08-27T01:02:25.300 ,0,1,0.,12.0,0.,12.0,0.,12.0,0.,12.0
1989-08-27T01:02:37.300 ,0,1,0.,12.0,0.,12.0,0.,12.0,0.,12.0
1989-08-27T01:02:49.300 ,0,0,0.,12.0,0.,12.0,0.,12.0,0.,12.0
1989-08-27T01:03:01.300 ,0,0,0.,12.0,0.,12.0,0.,12.0,0.,12.0
1989-08-27T01:03:13.300 ,0,1,0.,12.0,0.,12.0,0.,12.0,0.,12.0
1989-08-27T01:03:25.300 ,0,1,0.,12.0,0.,12.0,0.,12.0,0.,12.0
1989-08-27T01:03:37.300 ,0,0,0.,12.0,0.,12.0,0.,12.0,0.,12.0
1989-08-27T01:03:49.300 ,0,0,0.,12.0,0.,12.0,0.,12.0,0.,12.0
1989-08-27T01:04:01.300 ,1,1,0.,12.0,0.,12.0,0.,12.0,0.,12.0
1989-08-27T01:04:13.300 ,1,1,0.,12.0,0.,12.0,0.,12.0,0.,12.0
1989-08-27T01:04:25.300 ,1,0,0.,12.0,0.,12.0,0.,12.0,0.,12.0
1989-08-27T01:04:37.300 ,1,0,0.,12.0,0.,12.0,0.,12.0,0.,12.0
1989-08-27T01:04:49.300 ,2,1,0.,12.0,0.,12.0,0.,12.0,0.,12.0
1989-08-27T01:05:01.300 ,2,1,0.,12.0,0.,12.0,0.,12.0,0.,12.0
1989-08-27T01:05:13.300 ,2,0,0.,12.0,0.,12.0,0.,12.0,0.,12.0
1989-08-27T01:05:25.300 ,2,0,0.,12.0,0.,12.0,0.,12.0,0.,12.0
1989-08-27T01:05:37.300 ,3,1,0.,12.0,0.,12.0,0.,12.0,0.,12.0
1989-08-27T01:05:49.300 ,3,1,0.,12.0,0.,12.0,0.,12.0,0.,12.0
1989-08-27T01:06:01.300 ,3,0,0.,12.0,0.,12.0,0.,12.0,0.,12.0
1989-08-27T01:06:13.300 ,3,0,0.,12.0,0.,12.0,0.,12.0,0.,12.0
1989-08-27T01:06:25.300 ,4,1,0.,12.0,0.,12.0,0.,12.0,0.,12.0
1989-08-27T01:06:37.300 ,4,1,0.,12.0,0.,12.0,0.,12.0,0.,12.0
1989-08-27T01:06:49.300 ,4,0,0.,12.0,0.,12.0,0.,12.0,0.,12.0
1989-08-27T01:07:01.300 ,4,0,0.,12.0,0.,12.0,0.,12.0,0.,12.0
1989-08-27T01:07:13.300 ,5,1,0.,12.0,0.,12.0,0.,12.0,0.,12.0
1989-08-27T01:07:25.300 ,5,1,0.,12.0,0.,12.0,0.,12.0,0.,12.0
1989-08-27T01:07:37.300 ,5,0,0.,12.0,0.,12.0,0.,12.0,0.,12.0
1989-08-27T01:07:49.300 ,5,0,0.,12.0,0.,12.0,0.,12.0,0.,12.0
1989-08-27T01:08:01.300 ,6,1,0.,12.0,0.,12.0,0.,12.0,0.,12.0
1989-08-27T01:08:13.300 ,6,1,0.,12.0,0.,12.0,0.,12.0,0.,12.0
1989-08-27T01:08:25.300 ,6,0,0.,12.0,0.,12.0,0.,12.0,0.,12.0
1989-08-27T01:08:37.300 ,6,0,0.,12.0,0.,12.0,0.,12.0,0.,12.0
1989-08-27T01:08:49.300 ,7,1,0.,12.0,0.,12.0,0.,12.0,0.,12.0
1989-08-27T01:09:01.300 ,7,1,0.,12.0,0.,12.0,0.,12.0,0.,12.0
1989-08-27T01:09:13.300 ,7,0,0.,12.0,0.,12.0,0.,12.0,0.,12.0
1989-08-27T01:09:25.300 ,7,0,0.,12.0,0.,12.0,0.,12.0,0.,12.0
1989-08-27T01:09:37.300 ,7,1,0.,12.0,0.,12.0,0.,12.0,0.,12.0
1989-08-27T01:09:49.300 ,7,1,0.,12.0,0.,12.0,0.,12.0,0.,12.0
1989-08-27T01:10:01.300 ,7,0,0.,12.0,0.,12.0,0.,12.0,0.,12.0
1989-08-27T01:10:13.300 ,7,0,0.,12.0,0.,12.0,0.,12.0,0.,12.0
1989-08-27T01:10:25.300 ,6,1,0.,12.0,0.,12.0,0.,12.0,0.,12.0
1989-08-27T01:10:37.300 ,6,1,0.,12.0,0.,12.0,0.,12.0,0.,12.0
1989-08-27T01:10:49.300 ,6,0,0.,12.0,0.,12.0,0.,12.0,0.,12.0
1989-08-27T01:11:01.300 ,6,0,0.,12.0,0.,12.0,0.,12.0,0.,12.0
1989-08-27T01:11:13.300 ,5,1,0.,12.0,0.,12.0,0.,12.0,0.,12.0
1989-08-27T01:11:25.300 ,5,1,0.,12.0,0.,12.0,0.,12.0,0.,12.0
1989-08-27T01:11:37.300 ,5,0,0.,12.0,0.,12.0,0.,12.0,0.,12.0
1989-08-27T01:11:49.300 ,5,0,0.,12.0,0.,12.0,0.,12.0,0.,12.0
1989-08-27T01:12:01.300 ,4,1,0.,12.0,0.,12.0,0.,12.0,0.,12.0
1989-08-27T01:12:13.300 ,4,1,0.,12.0,0.,12.0,0.,12.0,0.,12.0
1989-08-27T01:12:25.300 ,4,0,0.,12.0,0.,12.0,0.,12.0,0.,12.0
1989-08-27T01:12:37.300 ,4,0,0.,12.0,0.,12.0,0.,12.0,0.,12.0
1989-08-27T01:12:49.300 ,3,1,0.,12.0,0.,12.0,0.,12.0,0.,12.0
1989-08-27T01:13:01.300 ,3,1,0.,12.0,0.,12.0,0.,12.0,0.,12.0
1989-08-27T01:13:13.300 ,3,0,0.,12.0,0.,12.0,0.,12.0,0.,12.0
1989-08-27T01:13:25.300 ,3,0,0.,12.0,0.,12.0,0.,12.0,0.,12.0
1989-08-27T01:13:37.300 ,2,1,0.,12.0,0.,12.0,0.,12.0,0.,12.0
1989-08-27T01:13:49.300 ,2,1,0.,12.0,0.,12.0,0.,12.0,0.,12.0
1989-08-27T01:14:01.300 ,2,0,0.,12.0,0.,12.0,0.,12.0,0.,12.0
1989-08-27T01:14:13.300 ,2,0,0.,12.0,0.,12.0,0.,12.0,0.,12.0
1989-08-27T01:14:25.300 ,1,1,0.,12.0,0.,12.0,0.,12.0,0.,12.0
1989-08-27T01:14:37.300 ,1,1,0.,12.0,0.,12.0,0.,12.0,0.,12.0
1989-08-27T01:14:49.300 ,1,0,0.,12.0,0.,12.0,0.,12.0,0.,12.0
1989-08-27T01:15:01.300 ,1,0,0.,12.0,0.,12.0,0.,12.0,0.,12.0
1989-08-27T01:15:13.300 ,0,1,0.,12.0,0.,12.0,0.,12.0,0.,12.0
1989-08-27T01:15:25.300 ,0,1,0.,12.0,0.,12.0,0.,12.0,0.,12.0
1989-08-27T01:15:37.300 ,0,0,0.,12.0,0.,12.0,0.,12.0,0.,12.0
1989-08-27T01:15:49.300 ,0,0,0.,12.0,0.,12.0,0.,12.0,0.,12.0
1989-08-27T01:16:01.300 ,0,1,0.,12.0,0.,12.0,0.,12.0,0.,12.0
1989-08-27T01:16:13.300 ,0,1,0.,12.0,0.,12.0,0.,12.0,0.,12.0
1989-08-27T01:16:25.300 ,0,0,0.,12.0,0.,12.0,0.,12.0,0.,12.0
1989-08-27T01:16:37.300 ,0,0,0.,12.0,0.,12.0,0.,12.0,0.,12.0
1989-08-27T01:16:49.300 ,1,1,0.,12.0,0.,12.0,0.,12.0,0.,12.0
1989-08-27T01:17:01.300 ,1,1,0.,12.0,0.,12.0,0.,12.0,0.,12.0
1989-08-27T01:17:13.300 ,1,0,0.,12.0,0.,12.0,0.,12.0,0.,12.0
1989-08-27T01:17:25.300 ,1,0,0.,12.0,0.,12.0,0.,12.0,0.,12.0